Location: Recife
(8.0585°S, 34.8848°W)
Time: 10:57:24
(UTC-03:00)

Courier 1B Rocket - Pass Details

Date: 14 April 2026
Orbit: 920 x 1201 km, 28.2° (Epoch: 13 May)

Event Time Altitude Azimuth Distance (km) Brightness Sun altitude
Rises 02:00:37 0° 339° (NNW) 3,534 - -50.3°
Reaches altitude 10° 02:05:41 10° 14° (NNE) 2,604 - -49.0°
Maximum altitude 02:07:15 11° 29° (NNE) 2,546 - -48.7°
Drops below altitude 10° 02:08:49 10° 44° (NE) 2,625 - -48.3°
Exits shadow 02:09:36 - 51° (NE) 2,712 7.7 -48.1°
Sets 02:13:59 0° 79° (E) 3,623 8.7 -47.0°
